When you browse on this site, cookies collect data to enhance your experience and personalize the content and advertising you see.
Visit our Privacy Policy to learn more. By continuing to use the site, you agree to this use of cookies and data.
  • Em Portugal
  • Lista de países
  • Para 7 dias
  • Temperatura da água
  • Mapas de satélite
  • Mapa do tempo
  • Widgets de tempo
  • user-avatar
    Iniciar Sessão

    Previsão horária em Trushniki

    Hoje, 20 Fevereiro, Quarta-feira

    Tempo Temperatura Precipitação Vento Pressão Humidade
    00:00 -18°C° 0 mm 1 m/s 743 mmHg 95%
    01:00 -18°C° 0 mm 1 m/s 743 mmHg 95%
    02:00 -19°C° 0 mm 1 m/s 744 mmHg 96%
    03:00 -20°C° 0 mm 1 m/s 744 mmHg 97%
    04:00 -21°C° 0 mm 0 m/s 744 mmHg 98%
    05:00 -21°C° 0 mm 0 m/s 744 mmHg 97%
    06:00 -21°C° 0 mm 1 m/s 744 mmHg 96%
    07:00 -21°C° 0 mm 1 m/s 745 mmHg 95%
    08:00 -19°C° 0 mm 1 m/s 745 mmHg 94%
    09:00 -18°C° 0 mm 1 m/s 745 mmHg 92%
    10:00 -19°C° 0 mm 2 m/s 745 mmHg 91%
    11:00 -17°C° 0 mm 2 m/s 745 mmHg 91%
    12:00 -17°C° 0 mm 3 m/s 745 mmHg 91%
    13:00 -16°C° 0 mm 3 m/s 745 mmHg 90%
    14:00 -16°C° 0 mm 4 m/s 744 mmHg 90%
    15:00 -16°C° 0 mm 4 m/s 744 mmHg 90%
    16:00 -16°C° 0 mm 4 m/s 744 mmHg 91%
    17:00 -16°C° 0 mm 4 m/s 744 mmHg 91%
    18:00 -18°C° 0 mm 5 m/s 744 mmHg 91%
    19:00 -18°C° 0 mm 5 m/s 743 mmHg 92%
    20:00 -17°C° 0 mm 5 m/s 743 mmHg 92%
    21:00 -16°C° 0 mm 6 m/s 743 mmHg 92%
    22:00 -16°C° 0 mm 6 m/s 742 mmHg 92%
    23:00 -15°C° 0.1 mm 6 m/s 742 mmHg 92%

    Amanhã, 21 Fevereiro, Quinta-feira

    Tempo Temperatura Precipitação Vento Pressão Humidade
    00:00 -14°C° 0.1 mm 6 m/s 742 mmHg 91%
    01:00 -14°C° 0.1 mm 7 m/s 741 mmHg 91%
    02:00 -14°C° 0.1 mm 7 m/s 741 mmHg 91%
    03:00 -13°C° 0.1 mm 7 m/s 741 mmHg 92%
    04:00 -12°C° 0.1 mm 6 m/s 740 mmHg 92%
    05:00 -11°C° 0.1 mm 6 m/s 740 mmHg 92%
    06:00 -10°C° 0.1 mm 6 m/s 740 mmHg 92%
    07:00 -10°C° 0.1 mm 6 m/s 740 mmHg 92%
    08:00 -9°C° 0.2 mm 7 m/s 740 mmHg 92%
    09:00 -9°C° 0.2 mm 7 m/s 740 mmHg 92%
    10:00 -9°C° 0.2 mm 7 m/s 740 mmHg 92%
    11:00 -8°C° 0.2 mm 7 m/s 740 mmHg 92%
    12:00 -8°C° 0.2 mm 7 m/s 741 mmHg 92%
    13:00 -8°C° 0.2 mm 7 m/s 741 mmHg 92%
    14:00 -6°C° 0.2 mm 6 m/s 741 mmHg 92%
    15:00 -6°C° 0.2 mm 6 m/s 741 mmHg 92%
    16:00 -6°C° 0.2 mm 6 m/s 742 mmHg 92%
    17:00 -6°C° 0.3 mm 6 m/s 742 mmHg 92%
    18:00 -6°C° 0.3 mm 6 m/s 742 mmHg 92%
    19:00 -6°C° 0.3 mm 6 m/s 742 mmHg 92%
    20:00 -6°C° 0.2 mm 6 m/s 742 mmHg 92%
    21:00 -8°C° 0.2 mm 6 m/s 742 mmHg 92%
    22:00 -8°C° 0.2 mm 6 m/s 742 mmHg 91%
    23:00 -6°C° 0.2 mm 6 m/s 742 mmHg 92%

    Depois de amanhã, 22 Fevereiro, Sexta-feira

    Tempo Temperatura Precipitação Vento Pressão Humidade
    00:00 -6°C° 0.2 mm 6 m/s 742 mmHg 92%
    01:00 -6°C° 0.2 mm 6 m/s 742 mmHg 92%
    02:00 -5°C° 0.2 mm 6 m/s 743 mmHg 92%
    03:00 -5°C° 0.2 mm 6 m/s 743 mmHg 92%
    04:00 -5°C° 0.2 mm 6 m/s 743 mmHg 92%
    05:00 -5°C° 0.1 mm 6 m/s 743 mmHg 91%
    06:00 -5°C° 0.1 mm 6 m/s 742 mmHg 91%
    07:00 -5°C° 0.1 mm 6 m/s 742 mmHg 91%
    08:00 -5°C° 0.1 mm 6 m/s 742 mmHg 91%
    09:00 -6°C° 0.1 mm 6 m/s 742 mmHg 91%
    10:00 -6°C° 0.1 mm 6 m/s 743 mmHg 91%
    11:00 -5°C° 0.2 mm 6 m/s 742 mmHg 91%
    12:00 -5°C° 0.2 mm 6 m/s 742 mmHg 90%
    13:00 -4°C° 0.2 mm 6 m/s 742 mmHg 90%
    14:00 -4°C° 0.2 mm 6 m/s 742 mmHg 90%
    15:00 -4°C° 0.2 mm 6 m/s 742 mmHg 90%
    16:00 -4°C° 0.2 mm 6 m/s 742 mmHg 90%
    17:00 -4°C° 0.4 mm 5 m/s 742 mmHg 91%
    18:00 -4°C° 0.4 mm 5 m/s 742 mmHg 92%
    19:00 -3°C° 0.4 mm 4 m/s 742 mmHg 93%
    20:00 -4°C° 0.4 mm 5 m/s 743 mmHg 92%
    21:00 -4°C° 0.4 mm 5 m/s 743 mmHg 92%
    22:00 -4°C° 0.4 mm 5 m/s 743 mmHg 91%
    23:00 -5°C° 0.2 mm 6 m/s 744 mmHg 89%

    23 Fevereiro, Sábado

    Tempo Temperatura Precipitação Vento Pressão Humidade
    00:00 -6°C° 0.2 mm 6 m/s 744 mmHg 87%
    01:00 -8°C° 0.2 mm 6 m/s 745 mmHg 85%
    02:00 -10°C° 0 mm 6 m/s 745 mmHg 88%
    03:00 -12°C° 0 mm 5 m/s 746 mmHg 90%
    04:00 -12°C° 0 mm 4 m/s 746 mmHg 93%
    05:00 -12°C° 0 mm 4 m/s 747 mmHg 93%
    06:00 -13°C° 0 mm 5 m/s 747 mmHg 93%
    07:00 -13°C° 0 mm 5 m/s 748 mmHg 93%
    08:00 -12°C° 0.1 mm 5 m/s 748 mmHg 92%
    09:00 -11°C° 0.1 mm 6 m/s 749 mmHg 91%
    10:00 -10°C° 0.1 mm 6 m/s 749 mmHg 90%
    11:00 -10°C° 0.1 mm 6 m/s 750 mmHg 89%
    12:00 -10°C° 0.1 mm 6 m/s 750 mmHg 88%
    13:00 -9°C° 0.1 mm 6 m/s 750 mmHg 86%
    14:00 -10°C° 0.1 mm 6 m/s 751 mmHg 87%
    15:00 -10°C° 0.1 mm 6 m/s 751 mmHg 87%
    16:00 -10°C° 0.1 mm 6 m/s 751 mmHg 88%
    17:00 -10°C° 0.1 mm 5 m/s 751 mmHg 89%
    18:00 -11°C° 0.1 mm 5 m/s 752 mmHg 90%
    19:00 -11°C° 0.1 mm 5 m/s 752 mmHg 92%
    20:00 -12°C° 0.1 mm 5 m/s 752 mmHg 92%
    21:00 -12°C° 0.1 mm 5 m/s 752 mmHg 93%
    22:00 -13°C° 0.1 mm 5 m/s 752 mmHg 94%
    23:00 -13°C° 0.2 mm 5 m/s 752 mmHg 94%

    24 Fevereiro, Domingo

    Tempo Temperatura Precipitação Vento Pressão Humidade
    00:00 -13°C° 0.2 mm 5 m/s 753 mmHg 94%
    01:00 -13°C° 0.2 mm 5 m/s 753 mmHg 94%
    02:00 -13°C° 0.1 mm 5 m/s 753 mmHg 94%
    03:00 -12°C° 0.1 mm 5 m/s 753 mmHg 94%
    04:00 -12°C° 0.1 mm 5 m/s 753 mmHg 94%
    05:00 -11°C° 0.1 mm 4 m/s 753 mmHg 95%
    06:00 -11°C° 0.1 mm 4 m/s 753 mmHg 95%
    07:00 -10°C° 0.1 mm 4 m/s 754 mmHg 95%
    08:00 -10°C° 0.1 mm 4 m/s 754 mmHg 95%
    09:00 -10°C° 0.1 mm 4 m/s 754 mmHg 94%
    10:00 -10°C° 0.1 mm 4 m/s 755 mmHg 94%
    11:00 -10°C° 0.1 mm 4 m/s 755 mmHg 93%
    12:00 -11°C° 0.1 mm 5 m/s 754 mmHg 92%
    13:00 -11°C° 0.1 mm 5 m/s 754 mmHg 92%
    14:00 -11°C° 0.1 mm 5 m/s 754 mmHg 91%
    15:00 -11°C° 0.1 mm 5 m/s 755 mmHg 90%
    16:00 -11°C° 0.1 mm 5 m/s 755 mmHg 89%
    17:00 -11°C° 0.1 mm 5 m/s 755 mmHg 90%
    18:00 -11°C° 0.1 mm 5 m/s 755 mmHg 91%
    19:00 -10°C° 0.1 mm 4 m/s 755 mmHg 92%
    20:00 -12°C° 0 mm 5 m/s 755 mmHg 92%
    21:00 -12°C° 0 mm 5 m/s 754 mmHg 93%
    22:00 -12°C° 0 mm 5 m/s 754 mmHg 93%
    23:00 -13°C° 0 mm 5 m/s 754 mmHg 93%

    25 Fevereiro, Segunda-feira

    Tempo Temperatura Precipitação Vento Pressão Humidade
    00:00 -13°C° 0 mm 5 m/s 754 mmHg 94%
    01:00 -13°C° 0 mm 5 m/s 753 mmHg 94%
    02:00 -14°C° 0 mm 4 m/s 753 mmHg 94%
    03:00 -14°C° 0 mm 4 m/s 753 mmHg 94%
    04:00 -14°C° 0 mm 4 m/s 753 mmHg 94%
    05:00 -15°C° 0 mm 4 m/s 752 mmHg 95%
    06:00 -16°C° 0 mm 4 m/s 752 mmHg 95%
    07:00 -16°C° 0 mm 4 m/s 751 mmHg 96%
    08:00 -16°C° 0.1 mm 4 m/s 751 mmHg 96%
    09:00 -16°C° 0.1 mm 4 m/s 751 mmHg 95%
    10:00 -15°C° 0.1 mm 4 m/s 751 mmHg 95%
    11:00 -14°C° 0 mm 4 m/s 750 mmHg 95%
    12:00 -14°C° 0 mm 4 m/s 750 mmHg 94%
    13:00 -13°C° 0 mm 5 m/s 750 mmHg 94%
    14:00 -13°C° 0 mm 5 m/s 749 mmHg 94%
    15:00 -12°C° 0 mm 5 m/s 749 mmHg 94%
    16:00 -12°C° 0 mm 5 m/s 749 mmHg 94%
    17:00 -11°C° 0 mm 4 m/s 748 mmHg 94%
    18:00 -12°C° 0 mm 4 m/s 748 mmHg 94%
    19:00 -12°C° 0 mm 4 m/s 748 mmHg 94%
    20:00 -12°C° 0 mm 4 m/s 748 mmHg 94%
    21:00 -12°C° 0 mm 4 m/s 747 mmHg 95%
    22:00 -12°C° 0 mm 4 m/s 747 mmHg 95%
    23:00 -12°C° 0.1 mm 4 m/s 747 mmHg 95%
    Mostrar mais